TimeCST,TemperatureF,Dew PointF,Humidity,Sea Level PressureIn,VisibilityMPH,Wind Direction,Wind SpeedMPH,Gust SpeedMPH,PrecipitationIn,Events,Conditions,WindDirDegrees,DateUTC
12:15 AM,43.7,43.2,98,29.91,0.2,WSW,4.6,-,N/A,Fog,Fog,250,2013-12-14 06:15:00
12:35 AM,43.7,43.0,97,29.91,0.2,West,4.6,-,N/A,Fog,Fog,260,2013-12-14 06:35:00
12:55 AM,42.8,42.3,98,29.90,0.2,WSW,3.5,-,N/A,Fog,Fog,250,2013-12-14 06:55:00
1:15 AM,41.4,41.0,99,29.89,0.2,SW,8.1,-,N/A,Fog,Fog,230,2013-12-14 07:15:00
1:35 AM,41.2,40.6,98,29.89,0.5,West,4.6,-,N/A,Fog,Fog,260,2013-12-14 07:35:00
1:55 AM,40.6,40.1,98,29.89,7.0,WNW,3.5,-,N/A,,Clear,290,2013-12-14 07:55:00
2:15 AM,39.7,39.2,98,29.88,10.0,West,4.6,-,N/A,,Clear,260,2013-12-14 08:15:00
2:35 AM,39.0,38.3,97,29.89,10.0,WSW,5.8,-,0.01,,Clear,240,2013-12-14 08:35:00
2:55 AM,38.3,37.6,97,29.88,7.0,SW,5.8,-,0.01,,Clear,230,2013-12-14 08:55:00
3:15 AM,38.3,37.8,98,29.88,10.0,SW,6.9,-,N/A,,Clear,230,2013-12-14 09:15:00
3:35 AM,39.7,38.7,96,29.89,10.0,WSW,6.9,-,N/A,,Clear,240,2013-12-14 09:35:00
3:55 AM,41.4,38.8,91,29.90,10.0,West,6.9,-,N/A,,Clear,270,2013-12-14 09:55:00
4:15 AM,42.1,38.7,88,29.91,10.0,WSW,8.1,-,N/A,,Clear,250,2013-12-14 10:15:00
4:35 AM,43.2,38.7,84,29.92,10.0,West,6.9,-,N/A,,Clear,260,2013-12-14 10:35:00
4:55 AM,42.8,38.3,84,29.92,10.0,WSW,8.1,-,N/A,,Clear,250,2013-12-14 10:55:00
5:15 AM,42.6,38.1,84,29.93,10.0,West,5.8,-,N/A,,Clear,260,2013-12-14 11:15:00
5:35 AM,42.6,37.9,83,29.94,10.0,West,6.9,-,N/A,,Clear,260,2013-12-14 11:35:00
5:55 AM,41.9,37.4,84,29.95,10.0,West,3.5,-,N/A,,Clear,270,2013-12-14 11:55:00
6:15 AM,40.5,36.7,86,29.96,10.0,West,6.9,-,N/A,,Clear,280,2013-12-14 12:15:00
6:35 AM,42.3,35.6,77,29.97,10.0,WNW,6.9,-,N/A,,Clear,290,2013-12-14 12:35:00
6:55 AM,43.3,34.7,72,29.99,10.0,NW,3.5,-,N/A,,Clear,310,2013-12-14 12:55:00
7:15 AM,44.6,34.2,67,30.00,10.0,NNW,9.2,18.4,N/A,,Clear,330,2013-12-14 13:15:00
7:35 AM,43.2,33.4,69,30.01,10.0,NW,6.9,-,N/A,,Clear,320,2013-12-14 13:35:00
7:55 AM,43.7,33.4,67,30.03,10.0,NW,8.1,-,N/A,,Clear,320,2013-12-14 13:55:00
8:15 AM,44.1,32.9,65,30.04,10.0,NNW,6.9,18.4,N/A,,Clear,340,2013-12-14 14:15:00
8:35 AM,44.2,32.7,64,30.06,10.0,NNW,12.7,17.3,N/A,,Clear,330,2013-12-14 14:35:00
8:55 AM,44.8,32.7,63,30.07,10.0,NNW,16.1,23.0,N/A,,Clear,330,2013-12-14 14:55:00
9:15 AM,45.3,33.1,62,30.08,10.0,North,20.7,29.9,N/A,,Clear,350,2013-12-14 15:15:00
9:35 AM,45.7,33.4,62,30.09,10.0,NNW,16.1,27.6,N/A,,Clear,340,2013-12-14 15:35:00
9:55 AM,46.4,33.6,61,30.11,10.0,NNW,19.6,23.0,N/A,,Clear,340,2013-12-14 15:55:00
10:15 AM,46.6,34.5,63,30.12,10.0,NNW,16.1,26.5,N/A,,Clear,330,2013-12-14 16:15:00
10:35 AM,47.3,34.7,62,30.14,10.0,North,13.8,24.2,N/A,,Clear,350,2013-12-14 16:35:00
10:55 AM,47.8,35.2,62,30.14,10.0,NNW,15.0,-,N/A,,Clear,340,2013-12-14 16:55:00
11:15 AM,47.7,34.9,61,30.16,10.0,North,16.1,23.0,N/A,,Scattered Clouds,350,2013-12-14 17:15:00
11:35 AM,47.3,34.0,60,30.16,10.0,NNW,19.6,26.5,N/A,,Mostly Cloudy,340,2013-12-14 17:35:00
11:55 AM,47.7,34.5,60,30.16,10.0,North,13.8,20.7,N/A,,Overcast,350,2013-12-14 17:55:00
12:15 PM,48.7,34.5,58,30.16,10.0,North,17.3,28.8,N/A,,Scattered Clouds,350,2013-12-14 18:15:00
12:35 PM,49.5,34.5,56,30.16,10.0,North,19.6,24.2,N/A,,Clear,360,2013-12-14 18:35:00
12:55 PM,50.0,35.1,57,30.16,10.0,NNW,16.1,21.9,N/A,,Clear,340,2013-12-14 18:55:00
1:15 PM,50.2,35.6,57,30.16,10.0,North,15.0,23.0,N/A,,Clear,350,2013-12-14 19:15:00
1:35 PM,49.8,35.4,58,30.16,10.0,North,23.0,28.8,N/A,,Clear,350,2013-12-14 19:35:00
1:55 PM,50.2,35.1,56,30.15,10.0,North,19.6,27.6,N/A,,Clear,360,2013-12-14 19:55:00
2:15 PM,50.7,34.7,54,30.15,10.0,North,18.4,26.5,N/A,,Clear,360,2013-12-14 20:15:00
2:35 PM,51.1,34.5,53,30.16,10.0,NNW,17.3,-,N/A,,Clear,330,2013-12-14 20:35:00
2:55 PM,51.8,32.7,48,30.15,10.0,NNW,19.6,26.5,N/A,,Clear,340,2013-12-14 20:55:00
3:15 PM,52.0,32.0,47,30.16,10.0,NNW,18.4,-,N/A,,Clear,340,2013-12-14 21:15:00
3:35 PM,52.0,30.9,45,30.16,10.0,North,18.4,25.3,N/A,,Clear,350,2013-12-14 21:35:00
3:55 PM,52.7,32.0,45,30.17,10.0,North,20.7,26.5,N/A,,Clear,360,2013-12-14 21:55:00
4:15 PM,51.1,29.1,43,30.18,10.0,North,23.0,28.8,N/A,,Clear,360,2013-12-14 22:15:00
4:35 PM,50.5,28.4,42,30.19,10.0,North,23.0,27.6,N/A,,Clear,350,2013-12-14 22:35:00
4:55 PM,49.8,28.2,43,30.21,10.0,North,18.4,24.2,N/A,,Clear,350,2013-12-14 22:55:00
5:15 PM,48.9,28.4,45,30.21,10.0,North,12.7,18.4,N/A,,Clear,350,2013-12-14 23:15:00
5:35 PM,47.5,27.7,46,30.22,10.0,North,13.8,19.6,N/A,,Clear,350,2013-12-14 23:35:00
5:55 PM,46.4,27.5,48,30.23,10.0,North,15.0,21.9,N/A,,Clear,350,2013-12-14 23:55:00
6:15 PM,45.9,27.3,48,30.24,10.0,North,10.4,19.6,N/A,,Clear,360,2013-12-15 00:15:00
6:35 PM,45.3,27.5,50,30.25,10.0,North,10.4,17.3,N/A,,Clear,360,2013-12-15 00:35:00
6:55 PM,44.6,27.3,51,30.26,10.0,North,9.2,-,N/A,,Clear,360,2013-12-15 00:55:00
7:15 PM,43.7,27.5,53,30.26,10.0,North,8.1,-,N/A,,Clear,360,2013-12-15 01:15:00
7:35 PM,42.6,27.7,56,30.27,10.0,North,8.1,-,N/A,,Clear,350,2013-12-15 01:35:00
7:55 PM,41.5,27.9,58,30.28,10.0,North,5.8,-,N/A,,Clear,350,2013-12-15 01:55:00
8:15 PM,41.2,27.5,58,30.29,10.0,NNW,3.5,-,N/A,,Clear,330,2013-12-15 02:15:00
8:35 PM,38.7,27.5,64,30.30,10.0,Calm,Calm,-,N/A,,Clear,0,2013-12-15 02:35:00
8:55 PM,36.7,27.7,70,30.31,10.0,Calm,Calm,-,N/A,,Clear,0,2013-12-15 02:55:00
9:15 PM,37.4,28.0,69,30.31,10.0,North,4.6,-,N/A,,Clear,10,2013-12-15 03:15:00
9:35 PM,36.9,27.9,70,30.32,10.0,North,5.8,-,N/A,,Clear,360,2013-12-15 03:35:00
9:55 PM,36.0,27.3,71,30.33,10.0,North,5.8,-,N/A,,Clear,360,2013-12-15 03:55:00
10:15 PM,36.5,27.3,69,30.33,10.0,NNW,3.5,-,N/A,,Clear,340,2013-12-15 04:15:00
10:35 PM,33.8,27.0,76,30.34,10.0,WNW,3.5,-,N/A,,Clear,300,2013-12-15 04:35:00
10:55 PM,34.7,26.6,72,30.34,10.0,NW,3.5,-,N/A,,Clear,320,2013-12-15 04:55:00
11:15 PM,34.5,26.6,73,30.34,10.0,Calm,Calm,-,N/A,,Clear,0,2013-12-15 05:15:00
11:35 PM,32.0,26.8,81,30.34,10.0,NNW,3.5,-,N/A,,Clear,330,2013-12-15 05:35:00
11:55 PM,33.8,26.6,75,30.34,10.0,North,5.8,-,N/A,,Clear,350,2013-12-15 05:55:00